Location: Azul
(36.7830°S, 59.8500°W)
Time: 00:07:01
(UTC-03:00)

DUCHIFAT 1 - Visible Passes

Search period start: 19 September 2024 00:00
Search period end: 29 September 2024 00:00
Orbit: 521 x 542 km, 98.1° (Epoch: 18 September)

Date Brightness Start Highest point End Pass type
(mag) Time Alt. Az. Time Alt. Az. Time Alt. Az.
19 Sep ? 05:32:44 10° N 05:36:35 72° WNW 05:40:31 10° SSW visible
20 Sep ? 05:22:46 10° NNE 05:26:37 82° ESE 05:30:34 10° S visible
21 Sep ? 05:12:50 10° NNE 05:16:38 59° ESE 05:20:31 10° S visible
22 Sep ? 05:02:56 10° NE 05:06:37 43° ESE 05:10:21 10° S visible
23 Sep ? 04:53:06 10° NE 04:56:34 32° ESE 05:00:05 10° S visible
24 Sep ? 04:43:20 10° NE 04:46:30 24° ESE 04:49:42 10° SSE visible
24 Sep ? 19:28:54 10° SW 19:30:33 12° WSW 19:32:11 10° W visible
25 Sep ? 04:33:40 10° ENE 04:36:24 19° ESE 04:39:09 10° SSE visible
25 Sep ? 06:07:08 10° NNW 06:10:27 27° W 06:13:51 10° SW visible
25 Sep ? 19:17:58 10° SSW 19:20:27 16° WSW 19:22:55 10° WNW visible
26 Sep ? 04:24:10 10° E 04:26:16 14° ESE 04:28:22 10° SE visible
26 Sep ? 05:56:35 10° NNW 06:00:11 37° W 06:03:51 10° SSW visible
27 Sep ? 04:15:13 10° ESE 04:16:07 11° ESE 04:17:00 10° SE visible
27 Sep ? 05:46:07 10° N 05:49:52 51° W 05:53:44 10° SSW visible
28 Sep ? 05:35:41 10° N 05:39:33 72° WNW 05:43:30 10° SSW visible
